QPF
0.00 0.00 0.00 0.00 0.00 0.00 0.00 0.00 0.00 0.00 0.00 0.00 0.00 0.00 0.00 0.00 0.00 0.00 0.00 0.00 0.00 0.00 0.00 0.00 0.00 0.01 0.00 0.00 0.00 0.00 0.00 0.00 0.00 0.00 0.00 0.00 0.00 0.00 0.00 0.00 0.00 0.00 0.00 0.00 0.00 0.00 0.00 0.01 0.01
0.00 0.00 0.00 0.00 0.00 0.00 0.00 0.00 0.00 0.00 0.00 0.00 0.00 0.00 0.00 0.00 0.00 0.00 0.00 0.00 0.00 0.00 0.00 0.00 0.00 0.01 0.00 0.00 0.00 0.00 0.00 0.01 0.00 0.00 0.00 0.00 0.00 0.00 0.00 0.00 0.00 0.00 0.00 0.00 0.00 0.00 0.00 0.00 0.01
0.00 0.00 0.00 0.00 0.00 0.00 0.00 0.00 0.00 0.00 0.00 0.00 0.00 0.00 0.00 0.00 0.00 0.00 0.00 0.00 0.00 0.00 0.01 0.00 0.00 0.01 0.00 0.00 0.00 0.00 0.00 0.00 0.00 0.00 0.00 0.00 0.00 0.00 0.00 0.00 0.00 0.00 0.00 0.00 0.00 0.00 0.00 0.00 0.00
0.00 0.00 0.00 0.00 0.00 0.00 0.00 0.00 0.00 0.00 0.00 0.00 0.00 0.00 0.00 0.00 0.00 0.00 0.00 0.00 0.00 0.02 0.01 0.00 0.00 0.02 0.01 0.00 0.00 0.00 0.00 0.00 0.00 0.00 0.00 0.00 0.00 0.00 0.00 0.00 0.00 0.00 0.00 0.00 0.00 0.00 0.00 0.00 0.00
0.00 0.00 0.00 0.00 0.00 0.00 0.00 0.00 0.00 0.00 0.00 0.00 0.00 0.00 0.00 0.00 0.00 0.00 0.00 0.01 0.01 0.02 0.01 0.00 0.00 0.01 0.01 0.01 0.01 0.01 0.00 0.00 0.00 0.00 0.00 0.00 0.00 0.00 0.00 0.00 0.00 0.00 0.00 0.00 0.00 0.00 0.00 0.00 0.00
0.00 0.00 0.00 0.00 0.00 0.00 0.00 0.00 0.00 0.00 0.00 0.00 0.00 0.00 0.00 0.00 0.00 0.00 0.00 0.03 0.03 0.00 0.00 0.00 0.00 0.00 0.00 0.00 0.00 0.00 0.00 0.00 0.00 0.00 0.00 0.00 0.00 0.00 0.00 0.00 0.00 0.01 0.02 0.04 0.03 0.02 0.01 0.00 0.00
0.00 0.00 0.00 0.00 0.00 0.00 0.00 0.00 0.00 0.00 0.00 0.00 0.00 0.00 0.00 0.00 0.00 0.00 0.00 0.01 0.08 0.03 0.00 0.00 0.00 0.00 0.00 0.00 0.00 0.00 0.00 0.00 0.00 0.00 0.00 0.00 0.00 0.00 0.00 0.00 0.00 0.00 0.00 0.00 0.01 0.01 0.01 0.00 0.00
0.00 0.00 0.00 0.00 0.00 0.00 0.00 0.00 0.00 0.00 0.00 0.00 0.00 0.00 0.00 0.00 0.02 0.01 0.02 0.02 0.10 0.02 0.00 0.00 0.00 0.00 0.00 0.00 0.00 0.00 0.00 0.00 0.00 0.00 0.00 0.00 0.00 0.00 0.00 0.00 0.00 0.00 0.00 0.00 0.00 0.00 0.00 0.00 0.00
0.00 0.00 0.00 0.00 0.00 0.00 0.00 0.00 0.00 0.00 0.00 0.00 0.00 0.00 0.00 0.00 0.02 0.03 0.02 0.01 0.05 0.03 0.00 0.00 0.00 0.00 0.00 0.00 0.00 0.00 0.00 0.00 0.00 0.00 0.00 0.00 0.00 0.00 0.00 0.00 0.00 0.00 0.00 0.00 0.00 0.00 0.00 0.00 0.00
0.00 0.00 0.00 0.00 0.00 0.00 0.00 0.00 0.00 0.00 0.00 0.00 0.00 0.00 0.00 0.00 0.00 0.01 0.02 0.03 0.02 0.01 0.00 0.00 0.00 0.00 0.00 0.00 0.00 0.00 0.00 0.00 0.00 0.00 0.00 0.00 0.00 0.00 0.00 0.00 0.00 0.00 0.00 0.00 0.00 0.00 0.00 0.00 0.00
0.00 0.00 0.00 0.00 0.00 0.00 0.00 0.00 0.00 0.00 0.00 0.00 0.00 0.00 0.00 0.00 0.00 0.00 0.00 0.00 0.00 0.00 0.00 0.00 0.00 0.00 0.00 0.00 0.00 0.00 0.00 0.00 0.00 0.00 0.00 0.00 0.00 0.00 0.00 0.00 0.00 0.00 0.00 0.00 0.00 0.00 0.00 0.00 0.00
0.00 0.00 0.00 0.00 0.00 0.00 0.00 0.00 0.00 0.00 0.00 0.00 0.00 0.00 0.00 0.00 0.00 0.00 0.00 0.00 0.00 0.00 0.00 0.00 0.00 0.00 0.00 0.00 0.00 0.00 0.00 0.00 0.00 0.00 0.00 0.00 0.00 0.00 0.00 0.00 0.00 0.00 0.00 0.00 0.00 0.00 0.00 0.00 0.00
0.00 0.00 0.00 0.00 0.00 0.00 0.00 0.00 0.00 0.00 0.00 0.00 0.00 0.00 0.00 0.00 0.00 0.00 0.00 0.00 0.00 0.00 0.00 0.00 0.00 0.00 0.00 0.00 0.00 0.00 0.00 0.00 0.00 0.00 0.00 0.00 0.00 0.00 0.00 0.00 0.00 0.00 0.00 0.00 0.00 0.00 0.00 0.00 0.00
0.00 0.00 0.00 0.00 0.00 0.00 0.00 0.00 0.00 0.00 0.00 0.00 0.00 0.00 0.00 0.00 0.00 0.00 0.00 0.00 0.00 0.00 0.00 0.00 0.00 0.00 0.00 0.00 0.00 0.00 0.00 0.00 0.00 0.00 0.00 0.00 0.00 0.00 0.00 0.00 0.00 0.00 0.00 0.00 0.00 0.00 0.00 0.00 0.00
0.00 0.00 0.00 0.00 0.00 0.00 0.00 0.00 0.00 0.00 0.00 0.00 0.00 0.00 0.00 0.00 0.00 0.00 0.00 0.00 0.00 0.00 0.00 0.00 0.00 0.00 0.00 0.00 0.00 0.00 0.00 0.00 0.00 0.00 0.00 0.00 0.00 0.00 0.00 0.00 0.00 0.00 0.00 0.00 0.00 0.00 0.00 0.00 0.00
0.00 0.00 0.00 0.00 0.00 0.00 0.00 0.00 0.00 0.00 0.00 0.00 0.00 0.00 0.00 0.00 0.00 0.00 0.00 0.00 0.00 0.00 0.00 0.00 0.00 0.00 0.00 0.00 0.00 0.00 0.00 0.00 0.00 0.00 0.00 0.00 0.00 0.00 0.00 0.00 0.00 0.00 0.00 0.00 0.00 0.00 0.00 0.00 0.00
0.00 0.00 0.00 0.00 0.00 0.00 0.00 0.00 0.00 0.00 0.00 0.00 0.00 0.00 0.00 0.00 0.00 0.00 0.00 0.00 0.00 0.00 0.00 0.00 0.00 0.00 0.00 0.00 0.00 0.00 0.00 0.00 0.00 0.00 0.00 0.00 0.00 0.00 0.00 0.00 0.00 0.00 0.00 0.00 0.00 0.00 0.00 0.00 0.00
0.00 0.00 0.00 0.00 0.00 0.00 0.00 0.00 0.00 0.00 0.00 0.00 0.00 0.00 0.00 0.00 0.00 0.00 0.00 0.00 0.00 0.00 0.00 0.00 0.00 0.00 0.00 0.00 0.00 0.00 0.00 0.00 0.00 0.00 0.00 0.00 0.00 0.00 0.00 0.00 0.00 0.00 0.00 0.00 0.00 0.00 0.00 0.00 0.00
0.00 0.00 0.00 0.00 0.00 0.00 0.00 0.00 0.00 0.00 0.00 0.00 0.00 0.00 0.00 0.00 0.00 0.00 0.00 0.00 0.00 0.00 0.00 0.00 0.00 0.00 0.00 0.00 0.00 0.00 0.00 0.00 0.00 0.00 0.00 0.00 0.00 0.00 0.00 0.00 0.00 0.00 0.00 0.00 0.00 0.00 0.00 0.00 0.00
0.00 0.00 0.00 0.00 0.00 0.00 0.00 0.00 0.00 0.00 0.00 0.00 0.00 0.00 0.00 0.00 0.00 0.00 0.00 0.00 0.00 0.00 0.00 0.00 0.00 0.00 0.00 0.00 0.00 0.00 0.00 0.00 0.00 0.00 0.00 0.00 0.00 0.00 0.00 0.00 0.00 0.00 0.00 0.00 0.00 0.00 0.00 0.00 0.00
0.00 0.00 0.00 0.00 0.00 0.00 0.00 0.00 0.00 0.00 0.00 0.00 0.00 0.00 0.00 0.00 0.00 0.00 0.00 0.00 0.00 0.00 0.00 0.00 0.00 0.00 0.00 0.00 0.00 0.00 0.00 0.00 0.00 0.00 0.00 0.00 0.00 0.00 0.00 0.00 0.00 0.00 0.00 0.00 0.00 0.00 0.00 0.00 0.00
0.00 0.00 0.00 0.00 0.00 0.00 0.00 0.00 0.00 0.00 0.00 0.00 0.00 0.00 0.00 0.00 0.00 0.00 0.00 0.00 0.00 0.00 0.00 0.00 0.00 0.00 0.00 0.00 0.00 0.00 0.00 0.00 0.00 0.00 0.00 0.00 0.00 0.00 0.00 0.00 0.00 0.00 0.00 0.00 0.00 0.00 0.00 0.00 0.00
0.00 0.00 0.00 0.00 0.00 0.00 0.00 0.00 0.00 0.00 0.00 0.00 0.00 0.00 0.00 0.00 0.00 0.00 0.00 0.00 0.00 0.00 0.00 0.00 0.00 0.00 0.00 0.00 0.00 0.00 0.00 0.00 0.00 0.00 0.00 0.00 0.00 0.00 0.00 0.00 0.00 0.00 0.00 0.00 0.00 0.00 0.00 0.00 0.00
0.00 0.00 0.00 0.00 0.00 0.00 0.00 0.00 0.00 0.00 0.00 0.00 0.00 0.00 0.00 0.00 0.00 0.00 0.00 0.00 0.00 0.00 0.00 0.00 0.00 0.00 0.00 0.00 0.00 0.00 0.00 0.00 0.00 0.00 0.00 0.00 0.00 0.00 0.00 0.00 0.00 0.00 0.00 0.00 0.00 0.00 0.00 0.00 0.00
0.00 0.00 0.00 0.00 0.00 0.00 0.00 0.00 0.00 0.00 0.00 0.00 0.00 0.00 0.00 0.00 0.00 0.00 0.00 0.00 0.00 0.00 0.00 0.00 0.00 0.00 0.00 0.00 0.00 0.00 0.00 0.00 0.00 0.00 0.00 0.00 0.00 0.00 0.00 0.00 0.00 0.00 0.00 0.00 0.00 0.00 0.00 0.00 0.00
0.00 0.00 0.00 0.00 0.00 0.00 0.00 0.00 0.00 0.00 0.00 0.00 0.00 0.00 0.00 0.00 0.00 0.00 0.00 0.00 0.00 0.00 0.00 0.00 0.00 0.00 0.00 0.00 0.00 0.00 0.00 0.00 0.00 0.00 0.00 0.00 0.00 0.00 0.00 0.00 0.00 0.00 0.00 0.00 0.00 0.00 0.00 0.00 0.00
0.00 0.00 0.00 0.00 0.00 0.00 0.00 0.00 0.00 0.00 0.00 0.00 0.00 0.00 0.00 0.00 0.00 0.00 0.00 0.00 0.00 0.00 0.00 0.00 0.00 0.00 0.00 0.00 0.00 0.00 0.00 0.00 0.00 0.00 0.00 0.00 0.00 0.00 0.00 0.00 0.00 0.00 0.00 0.00 0.00 0.00 0.00 0.00 0.00
0.00 0.00 0.00 0.00 0.00 0.00 0.00 0.00 0.00 0.00 0.00 0.00 0.00 0.00 0.00 0.00 0.00 0.00 0.00 0.00 0.00 0.00 0.00 0.00 0.00 0.00 0.00 0.00 0.00 0.00 0.00 0.00 0.00 0.00 0.00 0.00 0.00 0.00 0.00 0.00 0.00 0.00 0.00 0.00 0.00 0.00 0.00 0.00 0.00
0.00 0.00 0.00 0.00 0.00 0.00 0.00 0.00 0.00 0.00 0.00 0.00 0.00 0.00 0.00 0.00 0.00 0.00 0.00 0.00 0.00 0.00 0.00 0.00 0.00 0.00 0.00 0.00 0.00 0.00 0.00 0.00 0.00 0.00 0.00 0.00 0.00 0.00 0.00 0.00 0.00 0.00 0.00 0.00 0.00 0.00 0.00 0.00 0.00
0.00 0.00 0.00 0.00 0.00 0.00 0.00 0.00 0.00 0.00 0.00 0.00 0.00 0.00 0.00 0.00 0.00 0.00 0.00 0.00 0.00 0.00 0.00 0.00 0.00 0.00 0.00 0.00 0.00 0.00 0.00 0.00 0.00 0.00 0.00 0.00 0.00 0.00 0.00 0.00 0.00 0.00 0.00 0.00 0.00 0.00 0.00 0.00 0.00
MSLP
1012.97 1013.01 1013.12 1013.58 1015.27 1015.99 1015.37 1014.49 1013.52 1012.63 1011.90 1010.87 1010.70 1010.80 1010.95 1010.94 1011.28 1011.83 1011.03 1010.95 1011.05 1011.40 1011.90 1012.03 1012.15 1012.58 1012.95 1013.16 1013.44 1013.71 1013.91 1014.05 1014.16 1014.20 1014.35 1014.55 1014.64 1014.77 1014.97 1015.07 1015.14 1015.07 1015.15 1015.20 1015.21 1015.26 1015.26 1015.41 1015.51
1013.14 1013.18 1013.64 1014.71 1015.70 1016.10 1015.01 1013.89 1013.18 1011.98 1011.38 1011.15 1010.99 1011.07 1011.18 1011.22 1011.20 1011.29 1011.23 1011.11 1011.12 1011.30 1011.81 1012.25 1012.39 1012.64 1013.08 1013.46 1013.61 1013.81 1014.04 1014.13 1014.33 1014.48 1014.66 1014.75 1014.94 1014.96 1015.14 1015.25 1015.41 1015.49 1015.53 1015.48 1015.59 1015.52 1015.54 1015.63 1015.71
1013.04 1013.33 1014.26 1015.09 1015.52 1015.13 1014.47 1013.05 1012.27 1011.60 1010.97 1011.07 1011.25 1011.30 1011.35 1011.35 1011.27 1011.25 1011.24 1011.13 1011.26 1011.49 1011.88 1012.33 1012.64 1012.79 1013.06 1013.55 1013.86 1014.01 1014.12 1014.37 1014.53 1014.76 1014.86 1014.97 1015.06 1015.18 1015.32 1015.38 1015.53 1015.71 1015.71 1015.80 1015.81 1015.89 1015.79 1015.83 1015.89
1013.31 1014.04 1015.01 1015.05 1014.78 1014.04 1013.37 1012.37 1012.02 1011.69 1011.03 1011.08 1011.27 1011.53 1011.50 1011.28 1011.41 1011.31 1011.37 1011.41 1011.38 1011.76 1012.00 1012.49 1012.81 1013.01 1013.25 1013.58 1013.99 1014.30 1014.38 1014.53 1014.73 1014.93 1015.07 1015.19 1015.29 1015.42 1015.51 1015.64 1015.67 1015.79 1015.87 1015.87 1015.89 1015.91 1015.94 1016.02 1015.97
1013.76 1014.43 1015.07 1014.93 1014.17 1013.33 1012.61 1011.98 1011.75 1011.55 1011.45 1011.29 1011.49 1011.70 1011.62 1011.57 1011.44 1011.51 1011.61 1011.71 1011.73 1012.32 1012.52 1012.64 1013.03 1013.25 1013.49 1013.69 1013.99 1014.45 1014.68 1014.78 1014.90 1015.13 1015.29 1015.46 1015.60 1015.66 1015.77 1015.82 1015.89 1015.94 1015.93 1015.97 1015.92 1015.96 1015.97 1016.01 1016.04
1014.38 1014.70 1015.03 1014.43 1013.45 1012.65 1012.09 1011.60 1011.55 1011.40 1011.08 1011.25 1011.52 1012.11 1011.92 1011.81 1011.78 1011.95 1012.03 1012.19 1012.26 1012.45 1012.89 1013.05 1013.33 1013.50 1013.70 1013.91 1014.23 1014.66 1015.09 1015.19 1015.26 1015.43 1015.59 1015.79 1016.03 1016.10 1016.16 1016.22 1016.24 1016.26 1016.27 1016.24 1016.19 1016.17 1016.13 1016.09 1016.07
1014.14 1014.75 1014.25 1013.79 1012.87 1012.28 1011.37 1011.00 1011.06 1010.87 1010.82 1010.86 1010.90 1011.86 1012.08 1012.03 1012.03 1012.16 1012.37 1012.60 1012.71 1012.84 1013.36 1013.65 1013.71 1014.01 1014.19 1014.49 1014.76 1015.02 1015.48 1015.75 1015.82 1015.94 1016.20 1016.35 1016.49 1016.63 1016.73 1016.76 1016.72 1016.74 1016.70 1016.64 1016.64 1016.58 1016.49 1016.40 1016.24
1013.93 1014.26 1013.92 1013.31 1012.40 1011.42 1010.60 1010.43 1009.93 1010.40 1010.23 1010.18 1010.26 1011.26 1011.65 1011.34 1011.98 1012.21 1012.69 1013.02 1013.27 1013.64 1013.71 1014.11 1014.14 1014.38 1014.68 1014.91 1015.25 1015.57 1015.73 1016.12 1016.29 1016.39 1016.62 1016.82 1017.02 1017.17 1017.26 1017.30 1017.20 1017.17 1017.13 1017.03 1016.93 1016.89 1016.84 1016.79 1016.57
1013.76 1014.01 1013.18 1012.13 1011.90 1010.95 1010.50 1010.18 1009.98 1009.97 1010.15 1010.32 1010.35 1010.53 1010.81 1011.02 1011.91 1012.40 1013.02 1013.54 1013.81 1014.22 1014.17 1014.42 1014.62 1014.90 1015.11 1015.42 1015.67 1015.91 1016.19 1016.45 1016.68 1016.86 1017.01 1017.24 1017.50 1017.63 1017.77 1017.76 1017.68 1017.65 1017.59 1017.51 1017.36 1017.24 1017.17 1017.07 1016.91
1013.55 1013.32 1012.17 1011.42 1011.13 1010.83 1010.47 1010.32 1010.17 1010.20 1010.25 1010.37 1010.60 1010.83 1011.06 1011.35 1011.91 1012.48 1012.84 1013.39 1014.21 1014.45 1014.61 1014.69 1014.81 1015.08 1015.26 1015.61 1016.11 1016.41 1016.63 1016.97 1017.12 1017.29 1017.50 1017.62 1017.77 1017.91 1017.99 1018.03 1017.98 1017.96 1017.91 1017.80 1017.68 1017.52 1017.45 1017.35 1017.24
1012.85 1012.40 1011.79 1011.23 1010.90 1010.68 1010.49 1010.39 1010.27 1010.37 1010.48 1010.24 1010.42 1011.05 1011.56 1011.73 1012.29 1012.53 1012.98 1013.24 1013.71 1014.17 1014.54 1014.80 1015.03 1015.19 1015.44 1015.94 1016.44 1016.76 1017.02 1017.28 1017.48 1017.63 1017.77 1017.96 1018.09 1018.21 1018.23 1018.28 1018.26 1018.24 1018.15 1018.12 1018.01 1017.87 1017.67 1017.49 1017.30
1012.71 1011.87 1011.62 1011.06 1010.83 1010.79 1010.67 1010.49 1010.46 1010.38 1010.09 1010.13 1010.40 1010.76 1011.71 1011.95 1012.24 1012.33 1012.56 1013.09 1013.63 1014.09 1014.52 1014.85 1015.09 1015.33 1015.77 1016.14 1016.59 1016.93 1017.26 1017.57 1017.81 1017.99 1018.04 1018.20 1018.46 1018.57 1018.65 1018.78 1018.81 1018.72 1018.60 1018.55 1018.39 1018.21 1017.88 1017.59 1017.32
1012.55 1011.92 1011.35 1010.93 1010.85 1010.90 1010.79 1010.69 1010.65 1010.39 1010.17 1010.34 1010.63 1011.08 1011.57 1011.85 1012.01 1012.35 1012.66 1013.25 1013.61 1014.16 1014.63 1014.93 1015.15 1015.46 1015.76 1016.25 1016.74 1017.12 1017.48 1017.74 1017.96 1018.10 1018.22 1018.32 1018.53 1018.79 1018.87 1018.95 1018.96 1018.90 1018.82 1018.71 1018.50 1018.36 1018.08 1017.76 1017.41
1011.95 1011.64 1011.20 1010.96 1010.91 1010.90 1010.95 1010.57 1010.69 1010.04 1010.09 1010.48 1010.89 1011.16 1011.43 1011.67 1011.81 1012.46 1012.85 1013.07 1013.43 1013.87 1014.43 1014.91 1015.25 1015.49 1015.84 1016.47 1016.82 1017.25 1017.50 1017.82 1018.03 1018.26 1018.45 1018.52 1018.62 1018.84 1018.97 1018.95 1019.06 1019.02 1018.97 1018.74 1018.65 1018.47 1018.14 1017.88 1017.48
1011.90 1011.82 1011.37 1010.94 1010.81 1010.93 1010.88 1010.20 1009.92 1010.08 1010.27 1010.61 1010.97 1011.19 1011.24 1011.37 1011.89 1011.96 1011.96 1012.50 1012.91 1013.53 1014.10 1014.73 1015.13 1015.49 1015.96 1016.47 1016.86 1017.23 1017.45 1017.79 1018.12 1018.44 1018.62 1018.75 1018.86 1019.01 1018.94 1018.96 1019.05 1019.09 1018.98 1018.84 1018.62 1018.38 1018.09 1017.77 1017.23
1012.23 1012.01 1011.66 1010.39 1010.69 1010.75 1010.90 1008.81 1009.47 1009.44 1010.23 1010.46 1010.68 1010.97 1011.01 1010.93 1011.05 1011.25 1011.59 1012.16 1012.78 1013.34 1013.94 1014.48 1014.92 1015.49 1016.02 1016.54 1016.97 1017.33 1017.66 1017.98 1018.40 1018.65 1018.82 1018.92 1019.00 1018.95 1018.89 1018.95 1019.20 1019.18 1019.05 1018.83 1018.72 1018.48 1018.14 1017.78 1017.33
1012.76 1012.41 1011.89 1011.37 1010.83 1010.86 1011.05 1009.71 1009.17 1009.29 1009.89 1010.11 1010.58 1010.76 1010.98 1010.95 1010.97 1011.03 1011.26 1011.73 1012.32 1012.82 1013.61 1014.33 1014.77 1015.40 1015.96 1016.54 1017.05 1017.49 1017.88 1018.26 1018.63 1018.88 1019.02 1019.02 1019.02 1018.97 1018.98 1019.12 1019.27 1019.18 1019.08 1019.02 1018.90 1018.62 1018.45 1018.00 1017.46
1013.29 1013.18 1012.54 1012.05 1011.33 1011.29 1011.26 1010.20 1009.38 1009.61 1010.03 1010.12 1010.45 1010.37 1010.49 1010.69 1010.07 1010.44 1010.91 1011.36 1012.02 1012.62 1013.24 1014.00 1014.67 1015.31 1015.92 1016.56 1017.23 1017.76 1018.17 1018.59 1018.80 1018.95 1018.98 1019.00 1019.09 1019.06 1019.09 1019.18 1019.34 1019.32 1019.28 1019.11 1018.89 1018.67 1018.36 1018.11 1017.55
1013.35 1013.30 1012.91 1012.15 1011.57 1011.59 1011.13 1010.33 1009.13 1009.31 1009.79 1009.70 1009.73 1009.87 1009.73 1009.70 1009.57 1009.93 1010.63 1011.22 1011.88 1012.56 1013.21 1013.84 1014.53 1015.22 1015.75 1016.56 1017.45 1018.06 1018.41 1018.74 1019.00 1018.97 1018.94 1019.05 1019.05 1019.03 1019.20 1019.40 1019.51 1019.42 1019.38 1019.24 1019.01 1018.69 1018.39 1017.96 1017.38
1013.78 1013.61 1013.23 1012.49 1012.05 1012.12 1011.35 1010.40 1008.97 1008.74 1008.35 1007.60 1007.70 1008.18 1008.49 1008.96 1009.27 1009.62 1010.29 1011.11 1011.49 1011.98 1012.77 1013.61 1014.20 1014.94 1015.41 1015.87 1016.77 1017.37 1018.06 1018.65 1018.90 1018.96 1019.02 1019.07 1019.03 1019.07 1019.07 1019.37 1019.47 1019.35 1019.25 1019.21 1019.15 1018.95 1018.56 1017.98 1017.49
1013.64 1013.73 1013.31 1013.21 1012.63 1012.43 1011.93 1010.18 1008.29 1007.06 1006.61 1006.12 1006.13 1006.31 1006.80 1007.37 1008.11 1008.93 1009.86 1010.54 1011.23 1011.68 1012.37 1013.13 1013.86 1014.61 1015.21 1015.73 1016.63 1017.48 1018.18 1018.79 1019.09 1019.14 1019.14 1019.16 1019.04 1019.10 1019.20 1019.23 1019.21 1019.17 1019.24 1019.24 1019.13 1018.86 1018.64 1018.21 1017.80
1013.58 1012.94 1013.10 1013.45 1013.90 1013.78 1012.59 1010.87 1008.15 1006.76 1006.00 1005.47 1005.11 1005.54 1005.73 1006.13 1006.86 1007.77 1008.72 1009.81 1010.36 1010.99 1011.96 1012.73 1013.60 1014.44 1015.11 1015.62 1016.27 1017.00 1017.81 1018.56 1018.83 1019.02 1019.09 1019.12 1019.06 1019.14 1019.15 1019.14 1019.08 1019.04 1019.04 1019.08 1018.97 1018.69 1018.66 1018.48 1018.06
1012.89 1012.64 1013.27 1013.84 1014.38 1014.35 1013.43 1012.90 1007.85 1006.79 1005.87 1004.68 1004.01 1004.11 1004.52 1005.03 1005.77 1006.63 1007.28 1008.16 1009.53 1010.63 1011.44 1012.41 1013.51 1014.41 1014.95 1015.48 1016.06 1016.83 1017.65 1018.16 1018.53 1018.84 1018.97 1019.08 1019.11 1019.15 1019.18 1019.03 1018.92 1018.98 1018.97 1018.90 1018.81 1018.72 1018.66 1018.60 1018.42
1012.77 1013.19 1013.73 1014.77 1015.41 1015.13 1013.38 1012.36 1008.19 1006.40 1004.73 1003.47 1003.02 1003.42 1003.89 1004.42 1005.18 1005.96 1006.91 1008.01 1009.33 1010.41 1011.38 1012.23 1013.37 1014.31 1014.83 1015.42 1016.01 1016.62 1017.29 1017.91 1018.37 1018.57 1018.73 1018.93 1019.02 1019.18 1019.15 1018.99 1019.00 1018.94 1018.85 1018.70 1018.75 1018.73 1018.67 1018.49 1018.28
1013.14 1013.77 1014.87 1016.13 1016.96 1014.97 1013.36 1012.06 1007.51 1005.18 1003.81 1003.28 1003.25 1003.34 1003.74 1004.39 1005.19 1005.84 1006.55 1007.61 1008.84 1009.96 1011.09 1012.12 1013.14 1014.20 1014.74 1015.37 1015.97 1016.50 1017.04 1017.60 1017.93 1018.27 1018.63 1018.89 1019.05 1019.10 1018.99 1018.92 1018.78 1018.72 1018.62 1018.53 1018.62 1018.61 1018.47 1018.24 1018.11
1012.89 1013.89 1014.75 1015.91 1016.63 1015.61 1013.76 1010.44 1006.28 1004.03 1003.16 1002.89 1003.01 1003.41 1003.69 1004.36 1005.16 1005.62 1006.25 1007.11 1008.07 1009.30 1010.61 1011.63 1012.76 1013.83 1014.58 1015.26 1015.87 1016.28 1016.87 1017.48 1017.79 1017.98 1018.31 1018.63 1018.85 1018.89 1018.82 1018.64 1018.52 1018.52 1018.48 1018.35 1018.27 1018.30 1018.14 1017.99 1017.88
1013.40 1013.85 1014.20 1015.49 1016.66 1016.59 1013.10 1009.06 1006.19 1003.46 1002.81 1002.90 1003.15 1003.56 1003.93 1004.46 1004.96 1005.52 1006.31 1006.97 1007.84 1008.85 1010.04 1010.99 1012.32 1013.44 1014.30 1015.02 1015.69 1016.25 1016.79 1017.27 1017.59 1017.84 1018.12 1018.39 1018.46 1018.54 1018.39 1018.25 1018.36 1018.34 1018.29 1018.19 1018.12 1018.03 1017.84 1017.70 1017.47
1013.50 1013.86 1014.62 1015.94 1016.53 1015.83 1011.98 1009.57 1006.60 1004.19 1003.30 1003.16 1003.15 1003.72 1004.12 1004.62 1005.36 1005.68 1006.30 1006.96 1007.75 1008.55 1009.70 1010.85 1011.87 1012.82 1013.76 1014.72 1015.37 1015.90 1016.38 1016.86 1017.41 1017.70 1017.95 1018.15 1018.26 1018.28 1018.20 1018.20 1018.30 1018.31 1018.17 1018.01 1017.89 1017.81 1017.66 1017.49 1017.20
1014.12 1014.13 1014.46 1014.91 1015.46 1015.00 1012.92 1008.23 1005.45 1004.30 1003.99 1003.97 1003.84 1003.84 1004.40 1005.02 1005.71 1006.21 1006.64 1007.18 1007.91 1008.71 1009.72 1010.69 1011.74 1012.65 1013.65 1014.44 1015.07 1015.65 1016.21 1016.72 1017.29 1017.50 1017.77 1018.03 1018.16 1018.22 1018.09 1018.24 1018.26 1018.08 1017.98 1017.82 1017.75 1017.59 1017.33 1017.13 1016.83
1013.64 1013.71 1013.98 1014.44 1014.86 1014.28 1013.03 1007.67 1004.83 1004.18 1004.19 1004.31 1004.35 1004.34 1004.56 1005.29 1006.06 1006.54 1007.14 1007.51 1008.25 1008.96 1009.76 1010.57 1011.48 1012.29 1013.07 1013.90 1014.63 1015.37 1015.90 1016.50 1017.16 1017.44 1017.65 1017.90 1018.06 1018.07 1017.90 1018.21 1018.26 1018.01 1017.85 1017.79 1017.71 1017.42 1017.14 1016.89 1016.57
Thickness
5654 5656 5657 5652 5627 5617 5623 5640 5653 5660 5670 5684 5687 5683 5682 5685 5682 5670 5702 5705 5706 5703 5700 5701 5702 5699 5697 5697 5696 5696 5694 5695 5696 5697 5698 5697 5698 5698 5697 5697 5696 5698 5699 5699 5700 5701 5701 5701 5701
5647 5649 5646 5630 5614 5610 5624 5642 5649 5659 5672 5675 5679 5679 5679 5678 5684 5686 5691 5699 5701 5700 5696 5694 5694 5694 5692 5691 5692 5692 5690 5691 5691 5691 5692 5693 5692 5693 5692 5692 5692 5691 5692 5693 5692 5695 5696 5696 5696
5643 5642 5630 5619 5610 5616 5628 5644 5649 5665 5672 5673 5671 5674 5673 5674 5681 5684 5690 5693 5694 5692 5691 5689 5687 5688 5688 5686 5685 5686 5687 5686 5685 5684 5685 5686 5686 5687 5687 5687 5687 5686 5687 5687 5688 5688 5690 5691 5691
5633 5627 5619 5610 5617 5631 5640 5651 5650 5655 5667 5669 5668 5665 5671 5677 5675 5682 5685 5685 5686 5684 5684 5681 5681 5682 5682 5682 5680 5679 5681 5681 5680 5679 5679 5678 5679 5679 5680 5680 5682 5681 5681 5682 5683 5684 5684 5685 5686
5622 5615 5605 5608 5621 5635 5641 5645 5645 5649 5655 5661 5661 5659 5663 5671 5675 5676 5677 5678 5678 5676 5675 5676 5674 5675 5675 5676 5676 5673 5673 5675 5675 5673 5673 5672 5672 5673 5674 5675 5676 5676 5677 5677 5679 5679 5679 5680 5681
5608 5607 5598 5612 5625 5637 5640 5641 5643 5646 5651 5655 5656 5648 5656 5665 5667 5666 5667 5668 5669 5669 5666 5668 5668 5669 5669 5670 5669 5667 5665 5666 5667 5667 5666 5666 5665 5666 5667 5668 5669 5669 5670 5671 5672 5672 5673 5674 5674
5602 5597 5599 5609 5622 5628 5639 5641 5637 5645 5646 5650 5656 5643 5652 5657 5659 5658 5658 5658 5660 5660 5657 5658 5660 5660 5661 5661 5661 5660 5657 5657 5658 5659 5658 5658 5658 5657 5658 5659 5659 5660 5661 5662 5662 5663 5665 5665 5666
5599 5594 5596 5604 5619 5626 5640 5637 5649 5642 5646 5654 5657 5645 5646 5655 5653 5653 5650 5648 5648 5647 5650 5650 5652 5653 5653 5654 5653 5652 5652 5649 5650 5652 5652 5651 5650 5649 5649 5650 5651 5652 5653 5654 5655 5656 5657 5657 5659
5594 5584 5592 5614 5613 5627 5632 5633 5640 5644 5644 5646 5652 5653 5653 5651 5648 5647 5644 5641 5641 5639 5643 5643 5645 5645 5646 5646 5646 5646 5645 5644 5644 5644 5645 5644 5644 5643 5643 5643 5644 5645 5646 5646 5647 5648 5648 5649 5651
5583 5578 5602 5615 5614 5618 5625 5624 5629 5633 5636 5641 5644 5645 5643 5642 5643 5641 5639 5638 5633 5632 5634 5637 5639 5639 5640 5639 5638 5638 5638 5637 5637 5638 5638 5638 5639 5639 5639 5639 5639 5639 5640 5640 5640 5641 5641 5642 5643
5584 5586 5603 5608 5610 5614 5618 5616 5623 5624 5626 5636 5637 5636 5633 5635 5635 5636 5634 5635 5633 5633 5633 5633 5633 5634 5634 5633 5632 5632 5633 5632 5632 5633 5633 5633 5633 5634 5634 5635 5635 5634 5634 5634 5634 5635 5636 5636 5637
5575 5588 5595 5602 5605 5606 5608 5613 5617 5617 5631 5635 5633 5635 5628 5629 5631 5634 5635 5631 5630 5629 5628 5628 5630 5630 5629 5630 5628 5628 5628 5627 5628 5627 5628 5629 5628 5628 5627 5627 5626 5627 5627 5626 5626 5627 5628 5629 5630
5569 5582 5590 5596 5596 5596 5600 5604 5609 5614 5624 5628 5627 5626 5626 5628 5630 5630 5628 5626 5626 5625 5623 5624 5626 5627 5627 5625 5624 5624 5624 5623 5623 5623 5623 5623 5623 5621 5620 5620 5620 5619 5619 5619 5620 5620 5620 5620 5621
5575 5578 5585 5587 5590 5591 5592 5602 5600 5617 5620 5621 5621 5621 5621 5625 5627 5622 5622 5624 5624 5623 5621 5620 5622 5623 5622 5621 5620 5620 5620 5619 5619 5618 5617 5616 5616 5615 5614 5614 5613 5612 5611 5612 5611 5611 5612 5612 5613
5569 5569 5575 5580 5585 5586 5589 5594 5600 5614 5614 5613 5614 5617 5621 5623 5620 5626 5629 5626 5624 5623 5621 5619 5619 5619 5618 5617 5616 5616 5615 5615 5613 5611 5610 5609 5608 5607 5608 5607 5606 5605 5604 5603 5603 5603 5603 5603 5604
5561 5564 5562 5586 5579 5583 5585 5602 5609 5612 5605 5611 5612 5613 5618 5624 5627 5627 5627 5624 5620 5620 5620 5617 5618 5615 5614 5613 5611 5610 5609 5608 5605 5604 5603 5602 5601 5601 5602 5601 5598 5596 5595 5595 5594 5593 5593 5593 5593
5547 5547 5553 5565 5572 5575 5569 5588 5608 5605 5596 5604 5603 5604 5609 5615 5619 5623 5625 5623 5621 5621 5617 5613 5612 5611 5610 5608 5605 5604 5602 5600 5598 5596 5595 5595 5595 5595 5594 5592 5590 5589 5587 5585 5583 5582 5580 5580 5580
5539 5533 5545 5551 5565 5557 5558 5573 5595 5595 5586 5593 5593 5596 5601 5608 5628 5623 5621 5620 5619 5617 5615 5611 5609 5607 5605 5602 5599 5596 5593 5591 5589 5589 5589 5589 5588 5587 5586 5585 5582 5579 5577 5575 5573 5571 5568 5565 5565
5537 5532 5537 5550 5556 5553 5552 5567 5594 5592 5578 5585 5596 5598 5604 5612 5622 5619 5618 5616 5614 5613 5611 5608 5605 5602 5601 5596 5591 5587 5586 5583 5581 5582 5582 5581 5581 5580 5578 5575 5572 5570 5567 5564 5561 5559 5555 5552 5549
5518 5523 5522 5539 5545 5538 5546 5553 5587 5587 5587 5611 5618 5618 5617 5612 5613 5616 5614 5611 5614 5614 5610 5605 5603 5599 5598 5596 5589 5585 5580 5576 5575 5574 5574 5574 5574 5573 5571 5567 5564 5562 5558 5553 5548 5544 5542 5539 5533
5508 5506 5516 5523 5532 5526 5526 5540 5587 5596 5596 5610 5616 5626 5627 5623 5621 5616 5612 5610 5608 5610 5606 5603 5600 5596 5593 5590 5583 5577 5572 5568 5566 5566 5566 5567 5567 5565 5563 5561 5558 5554 5549 5543 5538 5532 5526 5522 5516
5502 5512 5515 5514 5517 5493 5526 5494 5573 5595 5598 5606 5613 5611 5626 5626 5627 5623 5619 5610 5610 5609 5603 5600 5596 5590 5586 5583 5579 5575 5569 5565 5561 5560 5560 5559 5559 5557 5555 5553 5549 5545 5539 5533 5527 5520 5511 5507 5504
5502 5520 5511 5511 5498 5499 5512 5481 5566 5586 5594 5610 5623 5620 5626 5628 5628 5624 5623 5621 5609 5602 5600 5596 5589 5583 5580 5577 5573 5568 5562 5559 5556 5554 5553 5552 5552 5550 5547 5544 5541 5536 5530 5523 5515 5507 5502 5496 5492
5501 5506 5497 5479 5480 5422 5504 5507 5544 5577 5601 5617 5628 5627 5621 5621 5621 5622 5618 5611 5602 5595 5592 5589 5582 5576 5574 5570 5566 5563 5558 5554 5551 5550 5549 5546 5544 5541 5539 5536 5532 5527 5519 5512 5504 5499 5494 5489 5485
5493 5494 5463 5458 5402 5451 5489 5496 5546 5588 5599 5606 5615 5620 5618 5608 5610 5613 5611 5607 5596 5592 5587 5581 5576 5569 5566 5563 5559 5556 5553 5550 5549 5546 5543 5540 5537 5534 5532 5529 5524 5518 5510 5502 5497 5491 5487 5484 5479
5484 5476 5455 5451 5431 5448 5481 5484 5548 5588 5597 5598 5603 5606 5612 5599 5603 5608 5607 5603 5597 5591 5582 5578 5570 5563 5559 5555 5552 5550 5546 5542 5541 5541 5538 5535 5531 5528 5526 5522 5517 5509 5502 5497 5493 5488 5485 5481 5476
5464 5457 5481 5461 5384 5407 5475 5517 5543 5583 5592 5592 5594 5594 5593 5591 5595 5599 5597 5595 5591 5586 5579 5574 5565 5558 5553 5549 5545 5543 5540 5537 5536 5535 5533 5530 5528 5525 5522 5517 5510 5502 5498 5494 5490 5486 5483 5478 5474
5460 5467 5448 5425 5448 5408 5466 5484 5532 5570 5585 5586 5593 5592 5584 5581 5581 5586 5587 5586 5584 5579 5572 5565 5561 5555 5549 5543 5540 5538 5535 5533 5530 5529 5527 5525 5523 5520 5516 5511 5503 5498 5494 5491 5487 5483 5480 5476 5473
5438 5429 5432 5447 5438 5414 5408 5492 5522 5554 5561 5566 5567 5574 5575 5567 5567 5570 5572 5571 5571 5567 5561 5558 5552 5546 5541 5537 5534 5532 5529 5526 5524 5523 5521 5519 5518 5514 5511 5505 5499 5495 5491 5488 5484 5482 5480 5477 5475
5448 5445 5448 5435 5432 5424 5412 5496 5542 5550 5543 5549 5553 5555 5562 5559 5555 5556 5555 5555 5554 5554 5552 5550 5544 5542 5537 5533 5530 5526 5523 5520 5518 5516 5516 5514 5512 5510 5507 5500 5496 5493 5490 5486 5483 5482 5480 5477 5474